星链-3952 (STARLINK-3952 )

导读

STARLINK-3952是美国太空探索技术公司Starlink互联网星座中的一颗卫星,于2022年5月13日发射入轨。它属于Starlink组网卫星,旨在为全球提供低延迟、高速率的宽带互联网服务,依托近地轨道部署,逐步完善星座覆盖,补充星座网络容量,支撑星链系统面向全球偏远地区、高需求场景提供卫星互联网接入服务。

基本信息
目录编号:
52534
目录名称:
STARLINK-3952
国际标识:
2022-051B
轨道中心:
EARTH
卫星名称:
星链-3952
卫星全名:
星链-3952 (STARLINK-3952 )
卫星状态:
已陨落 最后检测时间 2026-04-17
发射日期:
2022-05-13 UTC
国别 :
美国 (US)
星等 :
--
轨道信息
数据来源 国际轨道数据
星历时间: 2026-04-18T01:12:38+0800
轨道信息已过期60天
半长轴: 6559.969km
偏心率: 0.0055034
轨道倾角: 53.214°
近地点辐角 24.721°
升交点赤经 287.959°
平近点角 335.645°
近地点: 145.729km
远地点: 217.935km
周期: 88.128分钟
每日圈数: 16.339926
详细信息
固有亮度:
5
最大亮度:
2.5
卫星平台:
Starlink v1.5
覆盖范围:
全球
运营商:
太空探索技术公司
运营商所在国:
美国
制造商(研发单位):
太空探索技术公司
制造商所在国:
美国
使用方式:
暂无
卫星简介
星链(Starlink)计划是由太空探索技术公司(SpaceX)提出的一个巨型低轨卫星互联网星座项目,计划在2019年至2024年间在太空搭建由约1.2万颗卫星组成的“星链”网络,其中1584颗将部署在地球上空550千米处的近地轨道,并从2020年开始工作。该卫星仍在工作。